Manchester, NH

7:56 AM EST on February 25, 2017 (GMT -0500)
Manchester

Weather History for KMHT - February, 2014

Change the Weather History Date:

Monday, February 17, 2014

  Actual Average Record
Temperature  
Mean Temperature 19 °F 28 °F  
Max Temperature 26 °F 37 °F 55 °F (2011)
Min Temperature 8 °F 20 °F -8 °F (1961)
Degree Days  
Heating Degree Days 46 37  
Month to date heating degree days 653  
Since 1 July heating degree days 4279  
Cooling Degree Days 0 0  
Month to date cooling degree days 0  
Year to date cooling degree days 0  
Moisture  
Dew Point -5 °F    
Average Humidity 37    
Maximum Humidity 61    
Minimum Humidity 26    
Precipitation  
Precipitation 0.00 in 0.11 in 1.13 in (1955)
Month to date precipitation 1.55  
Year to date precipitation 4.57  
Snow  
Snow 0.00 in - - ()
Month to date snowfall  
Since 1 July snowfall  
Snow Depth 14.00 in    
Sea Level Pressure  
Sea Level Pressure 30.27 in    
Wind  
Wind Speed 12 mph (NW)    
Max Wind Speed 18 mph    
Max Gust Speed 30 mph    
Visibility 10 miles    
Events      
T = Trace of Precipitation, MM = Missing Value Source: NWS Daily Summary

Daily Weather History Graph

Daily Weather History Graph

Search for Another Location

Airport or City:

Trip Planner

Search our weather history database for the weather conditions in past years. The results will help you decide how hot, cold, wet, or windy it might be!

Date:

Astronomy

Feb. 17, 2014 Rise Set
Actual Time 6:40 AM EST 5:19 PM EST
Civil Twilight 6:11 AM EST 5:48 PM EST
Nautical Twilight 5:38 AM EST 6:21 PM EST
Astronomical Twilight 5:05 AM EST 6:54 PM EST
Moon 8:16 PM EST (2/17) 7:34 AM EST (2/17)
Length of Visible Light 11h 37m
Length of Day
10h 39m
Waning Gibbous, 93% of the Moon is Illuminated
Feb 17
Waning Gibbous
Feb 22
Last Quarter
Mar 1
New
Mar 8
First Quarter
Mar 16
Full

Hourly Weather History & Observations

Time (EST) Temp. Windchill Dew Point Humidity Pressure Visibility Wind Dir Wind Speed Gust Speed Precip Events Conditions
12:53 AM 16.0 °F 4.4 °F -4.0 °F 41% 30.06 in 10.0 mi NW 9.2 mph - N/A   Partly Cloudy
1:53 AM 16.0 °F 1.7 °F -5.1 °F 39% 30.06 in 10.0 mi WNW 13.8 mph 23.0 mph N/A   Clear
2:53 AM 15.1 °F -0.6 °F -5.1 °F 41% 30.08 in 10.0 mi NW 16.1 mph 24.2 mph N/A   Clear
3:53 AM 14.0 °F -1.4 °F -5.1 °F 43% 30.10 in 10.0 mi NW 15.0 mph 26.5 mph N/A   Clear
4:53 AM 12.9 °F -3.4 °F -6.0 °F 43% 30.14 in 10.0 mi NW 16.1 mph 29.9 mph N/A   Clear
5:53 AM 12.0 °F -5.6 °F -6.0 °F 44% 30.17 in 10.0 mi NW 18.4 mph 28.8 mph N/A   Clear
6:53 AM 12.0 °F -0.4 °F -6.0 °F 44% 30.20 in 10.0 mi NW 9.2 mph 18.4 mph N/A   Clear
7:53 AM 12.9 °F -2.8 °F -6.0 °F 43% 30.25 in 10.0 mi NW 15.0 mph 24.2 mph N/A   Clear
8:53 AM 14.0 °F -1.4 °F -6.0 °F 41% 30.27 in 10.0 mi NNW 15.0 mph 25.3 mph N/A   Clear
9:53 AM 17.1 °F 2.5 °F -6.0 °F 36% 30.28 in 10.0 mi NNW 15.0 mph 21.9 mph N/A   Clear
10:53 AM 19.9 °F 5.2 °F -7.1 °F 30% 30.29 in 10.0 mi NW 17.3 mph 29.9 mph N/A   Clear
11:53 AM 21.9 °F 7.8 °F -6.0 °F 29% 30.31 in 10.0 mi NW 17.3 mph - N/A   Clear
12:53 PM 24.1 °F 11.0 °F -5.1 °F 28% 30.31 in 10.0 mi NW 16.1 mph 23.0 mph N/A   Clear
1:53 PM 25.0 °F 11.7 °F -4.0 °F 28% 30.32 in 10.0 mi NW 17.3 mph 21.9 mph N/A   Clear
2:53 PM 26.1 °F 14.5 °F -5.1 °F 26% 30.33 in 10.0 mi WNW 13.8 mph 25.3 mph N/A   Clear
3:53 PM 25.0 °F 12.6 °F -5.1 °F 27% 30.35 in 10.0 mi NW 15.0 mph 19.6 mph N/A   Clear
4:53 PM 24.1 °F 11.5 °F -6.0 °F 27% 30.36 in 10.0 mi NW 15.0 mph 21.9 mph N/A   Clear
5:53 PM 21.9 °F 14.5 °F -5.1 °F 30% 30.38 in 10.0 mi WNW 5.8 mph - N/A   Partly Cloudy
6:53 PM 21.0 °F 10.6 °F -5.1 °F 32% 30.39 in 10.0 mi NW 9.2 mph - N/A   Clear
7:53 PM 19.0 °F 10.0 °F -5.1 °F 34% 30.40 in 10.0 mi North 6.9 mph - N/A   Partly Cloudy
8:53 PM 17.1 °F - -5.1 °F 37% 30.40 in 10.0 mi Calm Calm - N/A   Clear
9:53 PM 14.0 °F 5.1 °F -5.1 °F 43% 30.38 in 10.0 mi North 5.8 mph - N/A   Clear
10:53 PM 12.9 °F 6.9 °F -5.1 °F 45% 30.35 in 10.0 mi North 3.5 mph - N/A   Clear
11:53 PM 8.1 °F - -2.9 °F 61% 30.40 in 10.0 mi Calm Calm - N/A   Scattered Clouds